Home > Weather > Edmundston > Past weeks

Flag for Canada Weather for the Past 2 Weeks in Edmundston, New Brunswick, Canada

Now
12 °F

Cold.


Feels Like: 0 °F
Forecast: 10 / 16 °F
Wind: 8 mph from North

Location: St Leonard

Current Time: Feb 9, 2016 at 3:56:53 AM

Latest Report: Feb 9, 2016 at 3:00 AM


Visibility: N/A

Pressure: 29.87 "Hg

Humidity: 63%

Dew point: 2 °F

Location of EdmundstonLocation

Historic Weather in Edmundston — Graph

°F

Edmundston Temperature Yesterday

Maximum temperature yesterday: 16 °F (at 4:00 PM)
Minimum temperature yesterday: -5 °F (at 7:00 AM)
Average temperature yesterday: 7 °F

High & Low Weather Summary for the Past Weeks

 TemperatureHumidityPressure
High45 °F (Feb 1, 2:00 PM)100% (Jan 26, 5:00 PM)30.50 "Hg (Jan 26, 5:00 PM)
Low-5 °F (Feb 8, 7:00 AM)41% (Feb 7, 4:00 PM)29.32 "Hg (Feb 1, 2:00 PM)
Average20 °F80%29.93 "Hg
* Reported Jan 25 2:00 AM — Feb 9 2:00 AM, Edmundston, Weather by CustomWeather, © 2016

Note: Actual official high and low records may vary slightly from our data, if they occured in-between our weather recording intervals... More about our weather records

Advertising

Edmundston Weather History for the Previous 24 Hours

 ConditionsComfort  
Time TempWeatherWind HumidityBarometerVisibility
2:00 AM
Tue, Feb 9
12 °FCold.5 mph64%29.89 "HgN/A
1:00 AM12 °FCold.8 mph61%29.89 "HgN/A
12:00 AM12 °FCold.8 mph65%29.89 "HgN/A
11:00 PM
Mon, Feb 8
12 °FCold.9 mph69%29.89 "HgN/A
10:00 PM13 °FCold.8 mph73%29.91 "HgN/A
9:00 PM13 °FCold.7 mph69%29.93 "HgN/A
8:00 PM13 °FCold.10 mph65%29.95 "HgN/A
7:00 PM14 °FCold.8 mph62%30.00 "HgN/A
6:00 PM14 °FCold.8 mph59%30.01 "HgN/A
5:00 PM15 °FCold.10 mph56%30.03 "HgN/A
4:00 PM16 °FCold.10 mph54%30.06 "HgN/A
3:00 PM16 °FCold.12 mph55%30.05 "HgN/A
2:00 PM15 °FCold.12 mph61%30.09 "HgN/A
1:00 PM15 °FCold.13 mph58%30.13 "HgN/A
12:00 PM15 °FCold.8 mph56%30.13 "HgN/A
11:00 AM10 °FFrigid.6 mph67%30.18 "HgN/A
10:00 AM4 °FFrigid.7 mph83%30.22 "HgN/A
9:00 AM-1 °FFrigid.6 mph84%30.25 "HgN/A
8:00 AM-3 °FFrigid.5 mph89%30.26 "HgN/A
7:00 AM-5 °FFrigid.6 mph88%30.27 "HgN/A
6:00 AM-3 °FFrigid.7 mph88%30.29 "HgN/A
5:00 AM-4 °FFrigid.6 mph86%30.29 "HgN/A
4:00 AM-5 °FFrigid.5 mph91%30.31 "HgN/A
3:00 AM-2 °FFrigid.3 mph81%30.32 "HgN/A
Weather by CustomWeather, © 2016

See weather overviewHow to use our weather pages